Regional Weather Roundup
Issued by NWS

Home | Current Version | Previous Version | Text Only | Print | Product List | Glossary On
Versions: 1 2 3 4 5 6 7 8 9 10 11 12 13 14 15 16 17 18 19 20 21 22 23 24 25 26 27 28 29 30 31 32 33 34 35 36 37 38 39 40 41 42 43 44 45 46 47 48 49 50
000
ASUS43 KMPX 230210
RWRMN
WEATHER ROUNDUP FOR MINNESOTA
NATIONAL WEATHER SERVICE TWIN CITIES/CHANHASSEN MN
900 PM CDT FRI JUL 22 2016


NOTE: "FAIR" INDICATES FEW OR NO CLOUDS BELOW 12,000 FEET WITH NO
SIGNIFICANT WEATHER AND/OR OBSTRUCTIONS TO VISIBILITY. N/A MEANS
CURRENT SKY AND/OR WEATHER CONDITIONS ARE NOT AVAILABLE.

MNZ060>063-068>070-230300-
   Twin Cities Metro

CITY           SKY/WX    TMP DP  RH WIND       PRES   REMARKS
TWIN CITIES    MOCLDY    88  61  40 SE7       29.96R
ST PAUL        CLEAR     83  67  58 CALM      29.95S
CRYSTAL        CLOUDY    86  61  42 NE3       29.95R
BLAINE         MOCLDY    82  66  57 MISG      29.97R
LAKEVILLE      CLEAR     79  70  73 CALM      29.96F
EDEN PRAIRIE   CLEAR     85  64  49 CALM      29.95S
LAKEVILLE      CLEAR     79  70  73 CALM      29.96F
SOUTH ST PAUL  CLEAR     85  63  46 CALM      29.95S
LAKE ELMO      FAIR      79  68  69 CALM      29.97F
$$
MNZ001>005-007-008-013>017-022>024-027-028-230300-
   Northwest Minnesota

CITY           SKY/WX    TMP DP  RH WIND       PRES   REMARKS
BEMIDJI        CLEAR     77  64  65 CALM      29.99R
HALLOCK        CLEAR     77  68  73 CALM      29.97R
ROSEAU         CLEAR     73  66  78 W3        29.98R
WARROAD        CLEAR     75  64  69 NW5       29.97S
THIEF RVR FALL CLEAR     77  66  68 N3        30.01R
CROOKSTON      PTCLDY    75  66  73 CALM      29.99R
FOSSTON        CLOUDY    73  64  73 CALM      30.00R
DETROIT LAKES  CLOUDY    79  68  69 CALM      29.99R
MOORHEAD       CLOUDY    77  70  78 CALM      29.95R
PARK RAPIDS    CLEAR     80  66  62 E5        29.98S
MAHNOMEN       FAIR      72  66  81 NE6       29.99R
$$
MNZ006-009>011-018-025>026-230300-
   North Central Minnesota

CITY           SKY/WX    TMP DP  RH WIND       PRES   REMARKS
BAUDETTE       CLEAR     74  61  63 W5        29.97R
FLAG ISLAND    CLEAR     77  61  57 NW9       29.95S
INTL FALLS     CLEAR     67  62  84 CALM      29.96S
WASKISH        CLEAR     73  64  73 CALM      29.98R
BIG FORK       CLEAR     70  63  78 CALM      29.97S
LONGVILLE      CLEAR     72  68  88 CALM      29.99R
CRANE LAKE     CLEAR     66  63  88 CALM      29.97S
ORR            CLEAR     68  59  73 CALM      29.95R
COOK           CLEAR     72  63  73 CALM      29.98R
WALKER         FAIR      72  64  77 CALM      29.98S
$$
MNZ012-019>021-037-230300-
   Northeast Minnesota

CITY           SKY/WX    TMP DP  RH WIND       PRES   REMARKS
DULUTH         CLEAR     76  59  55 NW6       29.97F
ELY            CLEAR     73  54  49 NW3       29.97S
HIBBING        CLEAR     69  62  78 CALM      29.97S
EVELETH        CLEAR     73  63  71 CALM      29.99R
DULUTH HARBOR  CLEAR     82  64  54 W3        29.93S
TWO HARBORS    CLEAR     73  64  73 CALM      29.93S
SILVER BAY     CLEAR     73  66  78 CALM      29.93S
GRAND MARAIS     N/A     72  56  57 NW3       29.91S
G MARAIS ARPRT CLEAR     72  48  43 W6        29.99S
$$
MNZ029>031-032-039>041-046>048-054>057-064-230300-
   West Central Minnesota

CITY           SKY/WX    TMP DP  RH WIND       PRES   REMARKS
FERGUS FALLS   CLOUDY    81  70  69 SE3       29.96S
WHEATON        PTCLDY    77  73  88 E5        29.96F
MORRIS         CLOUDY    79  68  69 E8        29.94F
ALEXANDRIA     CLOUDY    78  68  71 E3        30.00R
ELBOW LAKE     FAIR      80  71  73 SE6       29.97F
WADENA         CLEAR     73  68  83 CALM      29.98F
GLENWOOD       CLOUDY    75  70  83 E6        29.99F
APPLETON       CLOUDY    79  66  65 SE3       29.95R HAZE
BENSON         CLOUDY    81  66  61 E3        29.95F
ORTONVILLE     MOCLDY    79  68  69 E6        29.95R
MADISON        CLOUDY    77  68  73 CALM      29.95R
WILLMAR        FAIR      81  70  69 E7        29.96F
$$
MNZ033>034-036-042>043-049>051-058-059-230300-
   Central Minnesota

CITY           SKY/WX    TMP DP  RH WIND       PRES   REMARKS
ST CLOUD       CLOUDY    77  72  84 NE3       29.97R
SAUK CENTRE    FAIR      79  69  72 CALM      29.99S
PAYNESVILLE    CLOUDY    78  69  76 CALM      29.98S
AITKIN         CLOUDY    75  64  69 CALM      29.97R
PINE RIVER     CLEAR     75  68  78 CALM      30.01S
BRAINERD       CLOUDY    81  72  74 N6        29.98R
STAPLES        CLOUDY    79  70  73 CALM      29.98F
LONG PRAIRIE   FAIR      77  73  88 CALM      30.00S
LITTLE FALLS   PTCLDY    75  70  83 CALM      29.98R
LITCHFIELD     PTCLDY    81  68  65 CALM      29.98R
BUFFALO        PTCLDY    81  68  65 CALM      29.97R
MAPLE LAKE     CLOUDY    80  70  72 CALM      29.97S
HUTCHINSON     CLEAR     82  71  68 E5        29.97R
$$
MNZ037-044-045-052-053-230300-
   East Central Minnesota

CITY           SKY/WX    TMP DP  RH WIND       PRES   REMARKS
PRINCETON      PTCLDY    79  70  73 CALM      29.97R
MORA           CLOUDY    77  70  78 CALM      29.99R
CAMBRIDGE      CLOUDY    81  66  61 CALM      29.96R
RUSH CITY      MOCLDY    75  72  88 CALM      29.96S
MOOSE LAKE     CLOUDY    79  72  78 CALM      29.96R
HINCKLEY       FAIR      77  73  88 CALM      29.96S
CLOQUET        CLEAR     73  63  68 CALM      29.98R
MCGREGOR       CLOUDY    79  68  69 CALM      29.99R
$$
MNZ071>073-080-081-089-090-097-098-230300-
   Southwest Minnesota

CITY           SKY/WX    TMP DP  RH WIND       PRES   REMARKS
MONTEVIDEO     CLOUDY    79  70  73 S3        29.97R
GRANITE FALLS  MOCLDY    81  70  69 NE3       29.96R
CANBY          CLOUDY    79  71  75 SE3       29.95S
MARSHALL       MOCLDY    82  70  66 SE10      29.94R
REDWOOD FALLS  CLOUDY    82  69  64 E8        29.94S
OLIVIA         CLOUDY    82  64  54 NE3       29.96R
PIPESTONE      CLOUDY    82  75  78 E6        29.96F
WINDOM         PTCLDY    82  75  78 E8        29.96F
WORTHINGTON    PTCLDY    81  79  94 E6        29.97F HX  90
JACKSON        CLEAR     82  77  83 SE6       29.98S HX  91
TRACY          MOCLDY    82  71  69 E7        29.95F
SLAYTON        CLOUDY    80  74  83 E9        29.96F
$$
MNZ065>067-074>077-082>085-091>093-230300-
   South Central Minnesota

CITY           SKY/WX    TMP DP  RH WIND       PRES   REMARKS
MANKATO        PTCLDY    82  70  65 E7        29.96S
NEW ULM        CLOUDY    82  66  57 E5        29.95S
ST JAMES       PTCLDY    75  72  88 E3        29.95F
FAIRMONT       CLEAR     81  72  74 SE5       29.96S
GLENCOE        PTCLDY    80  72  77 CALM      29.96R
FARIBAULT      CLEAR     79  72  78 CALM      29.96F
OWATONNA       PTCLDY    81  72  74 E3        29.97F
WASECA         MOCLDY    79  72  78 E6        29.98F
ALBERT LEA     CLEAR     82  79  89 CALM      29.97S HX  93
$$
MNZ078>079-086>088-094>096-230300-
   Southeast Minnesota

CITY           SKY/WX    TMP DP  RH WIND       PRES   REMARKS
ROCHESTER      MOCLDY    83  77  82 NE6       29.99S HX  92
RED WING       CLEAR     75  72  88 CALM      29.95R
STANTON        CLEAR     77  68  73 CALM      29.95S
DODGE CENTER   CLEAR     79  70  73 E6        29.98F
WINONA         CLEAR     81  70  69 CALM      29.95F
AUSTIN         CLEAR     81  77  89 CALM      29.98S
PRESTON        CLEAR     81  76  85 S3        29.99S
$$
ABBREVIATIONS USED IN REMARKS
   TC - TEMPERATURES IN CELSIUS
  WCI - WIND CHILL INDEX
   HX - HEAT INDEX
  VSB - VISIBILITY
$$




USA.gov is the U.S. government's official web portal to all federal, state and local government web resources and services.